Wind_Speed
16 16 13 15 17 17 15 21 21 23 22 19 18 16 9 11 10 9 6 4 3 2 2 3 4 4 5 5 5 6 8 9
15 16 8 4 9 14 20 21 26 29 25 22 19 14 12 9 7 8 8 7 5 3 3 3 4 5 6 6 6 8 8 12
18 18 12 9 11 12 15 20 20 20 22 18 15 18 11 13 4 4 6 11 10 7 5 5 4 8 8 8 9 10 7 15
13 15 13 11 13 14 16 19 20 18 22 19 18 14 12 10 9 6 4 3 6 6 7 6 8 9 9 8 9 11 10 18
9 10 11 12 15 12 14 16 22 21 17 14 10 10 9 6 7 8 5 0 6 8 7 6 5 7 8 8 9 11 11 14
8 8 7 7 9 13 16 23 21 19 16 12 12 12 8 3 6 4 2 5 7 9 8 7 6 7 8 8 9 11 14 10
7 6 6 6 8 12 20 22 18 16 14 13 14 15 14 15 9 9 9 9 10 10 8 7 7 8 9 9 9 10 11 13
5 6 6 7 8 11 13 15 14 11 8 5 5 6 9 8 7 7 7 8 11 10 9 7 7 7 8 9 10 10 10 11
4 4 3 6 7 10 11 12 10 11 10 10 9 10 11 10 9 9 9 10 10 9 10 10 9 8 8 9 9 10 9 9
3 2 1 2 6 8 9 10 9 10 10 9 11 12 13 12 11 11 12 12 12 11 11 12 11 11 10 10 9 9 9 8
1 0 2 4 6 8 12 12 12 11 10 10 10 11 11 11 11 11 11 11 11 11 12 11 11 11 10 9 8 8 8 7
2 3 5 7 9 12 14 14 14 12 10 7 6 6 6 7 7 8 9 11 12 12 12 11 11 11 11 9 8 8 7 6
5 6 7 7 10 11 12 13 13 9 6 4 3 2 0 2 4 6 8 8 10 11 10 12 13 14 14 13 11 9 8 6
7 7 8 10 12 13 8 6 4 4 2 2 2 3 3 3 4 6 7 7 8 9 10 11 12 14 14 12 11 9 8 7
8 8 10 11 12 10 5 4 3 2 2 2 3 3 2 3 5 6 6 6 7 8 10 11 11 12 14 14 14 12 10 8
7 6 7 11 8 2 4 5 5 4 5 4 4 4 3 3 4 5 5 6 7 9 9 9 9 12 15 17 16 16 13 10
4 4 3 3 3 5 6 5 5 5 4 4 5 5 4 3 2 3 5 5 5 5 6 7 7 10 14 16 17 14 11 9
2 1 4 5 6 7 7 5 3 2 2 4 4 5 3 3 3 4 4 2 2 4 5 5 7 8 11 14 13 11 11 10
4 4 6 5 4 4 5 3 1 2 2 3 4 4 4 3 3 4 3 1 1 3 4 6 7 8 10 11 10 12 11 11
Wind_Direction
326 314 301 239 228 211 189 186 195 182 176 167 162 160 133 75 68 57 32 11 350 312 267 218 227 206 186 184 173 157 154 135
350 345 340 190 192 173 180 189 177 178 156 146 141 140 132 75 21 14 7 4 356 343 283 249 238 235 215 202 180 167 150 145
5 10 39 87 120 153 163 170 165 156 143 135 137 137 120 111 72 27 351 353 344 328 304 256 272 256 250 227 200 174 169 175
8 12 30 68 102 134 148 150 153 140 129 119 117 111 110 119 136 116 49 325 303 312 302 303 263 248 245 240 224 199 184 191
25 28 43 73 96 119 134 140 133 134 133 131 137 127 131 186 164 137 126 154 300 303 285 278 266 263 259 249 236 225 210 202
33 34 57 88 114 127 134 136 144 150 147 141 137 139 130 206 173 155 192 217 235 250 276 287 283 264 254 256 249 238 226 223
53 63 85 96 115 131 144 150 159 166 171 166 156 154 173 201 188 186 193 207 233 253 270 290 293 278 272 261 252 250 244 234
81 87 106 123 137 150 159 164 170 180 184 199 212 201 210 216 207 213 218 226 237 245 263 282 284 280 271 270 266 259 254 242
72 88 116 146 165 174 180 184 187 196 206 218 226 229 231 236 239 242 246 250 252 258 271 279 271 265 260 260 267 272 270 265
48 51 225 225 228 216 208 206 215 220 223 233 244 249 250 252 256 256 257 256 256 259 265 264 258 254 255 257 255 259 262 261
95 259 268 238 225 228 235 227 228 233 243 249 259 260 259 263 268 270 270 264 258 264 270 266 258 251 250 257 268 273 270 259
188 281 271 252 252 237 238 237 238 240 239 235 239 250 261 265 273 281 282 280 280 280 275 273 262 253 249 249 254 258 254 252
212 255 277 275 268 270 267 262 257 259 258 225 185 152 310 304 306 296 291 289 287 281 280 275 261 248 241 240 244 246 240 229
234 253 273 280 291 288 279 277 264 242 233 173 105 67 32 354 321 305 301 301 297 290 285 277 262 244 234 230 225 222 217 208
286 290 301 305 297 282 236 189 155 129 68 55 69 71 46 331 309 301 295 292 292 288 281 277 265 247 233 224 214 204 195 192
275 312 315 309 302 243 175 156 135 119 112 113 90 73 48 7 326 318 304 290 279 270 256 245 241 237 227 213 203 189 190 205
298 328 356 359 98 117 105 100 83 72 69 62 37 18 11 13 13 12 344 312 289 262 231 218 210 218 224 216 198 193 208 193
319 105 98 100 101 117 116 117 106 84 45 20 4 354 8 35 45 38 10 330 251 222 211 210 213 207 207 196 201 211 183 175
137 127 139 137 134 134 136 122 62 26 23 22 27 34 61 44 27 19 339 55 234 225 199 190 194 192 200 212 202 185 174 176
Height
775 769 766 767 771 776 784 788 793 797 801 805 811 814 817 809 813 823 829 832 834 836 836 837 839 839 839 841 842 842 845 848
777 770 764 765 771 776 780 786 792 794 799 805 810 815 815 814 824 828 829 832 834 834 836 836 838 840 840 840 840 841 845 848
779 775 771 769 772 776 782 785 793 798 800 806 811 812 817 811 824 826 831 830 834 836 837 838 835 840 840 839 838 838 842 844
784 783 781 780 778 780 782 786 791 799 802 806 812 815 816 817 821 824 828 833 835 835 837 835 837 838 838 838 838 837 838 841
788 788 787 785 786 787 789 792 796 800 804 803 806 810 813 822 822 819 823 828 833 834 835 834 832 834 836 836 835 836 837 838
789 790 790 790 789 789 792 795 799 799 801 805 807 809 813 820 817 817 818 821 825 830 833 831 830 831 831 833 834 834 834 836
793 793 793 793 793 793 795 796 801 801 803 803 803 803 807 812 812 814 815 818 824 828 829 829 828 829 830 831 830 832 832 832
793 793 794 794 795 796 798 798 799 803 804 807 809 810 811 813 814 814 815 817 820 824 826 826 827 827 828 829 831 829 829 828
795 795 796 796 796 797 799 799 800 801 803 805 807 810 811 812 813 813 814 816 818 821 822 822 824 825 826 827 828 829 827 827
797 799 799 796 799 798 799 799 800 801 802 804 806 808 811 811 812 811 812 813 815 817 818 820 821 823 825 825 823 824 825 825
795 796 797 797 796 796 798 797 798 800 801 802 804 806 808 809 811 811 811 812 812 813 815 816 818 820 822 823 824 824 825 824
790 792 794 794 793 792 793 793 796 797 798 797 799 802 805 807 808 809 809 810 810 810 810 812 813 815 818 819 821 823 824 823
787 789 790 790 790 791 792 794 796 798 800 800 799 800 802 805 805 806 807 806 806 807 807 808 809 811 814 816 818 820 820 820
784 785 786 786 787 789 792 793 795 798 800 800 799 799 801 803 804 805 805 803 804 804 805 806 807 808 811 814 816 818 819 820
779 780 782 783 785 785 788 790 792 794 797 799 800 800 800 802 804 804 803 802 802 803 803 803 805 806 808 810 812 814 817 820
776 777 779 779 780 781 784 786 788 790 792 795 797 797 797 798 800 801 802 800 801 802 800 800 801 803 805 808 810 811 815 817
774 776 776 778 779 781 784 787 789 791 794 794 795 795 796 797 798 798 798 799 799 800 800 800 800 802 804 806 808 810 814 816
773 776 778 779 780 779 780 783 786 788 790 789 790 793 794 795 795 795 795 796 797 798 798 798 800 801 803 805 808 810 811 815
775 778 780 779 781 781 778 778 782 784 785 787 788 791 791 794 794 793 793 793 795 797 797 797 799 801 803 805 807 809 811 813